Regional Weather Roundup
Issued by NWS

Home | Current Version | Previous Version | Graphics & Text | Print | Product List | Glossary On
Versions: 1 2 3 4 5 6 7 8 9 10 11 12 13 14 15 16 17 18 19 20 21 22 23 24 25 26 27 28 29 30 31 32 33 34 35 36 37 38 39 40 41 42 43 44 45 46 47 48 49 50
000
ASUS43 KMKX 272111
RWRWI

WISCONSIN REGIONAL WEATHER ROUNDUP
NATIONAL WEATHER SERVICE MILWAUKEE/SULLIVAN WI
400 PM CDT THU AUG 27 2015

NOTE: "FAIR" INDICATES FEW OR NO CLOUDS BELOW 12,000 FEET WITH NO
SIGNIFICANT WEATHER AND/OR OBSTRUCTIONS TO VISIBILITY.

WIZ001-002-006>008-014>016-023>028-272200-
NORTHWEST WISCONSIN

CITY           SKY/WX    TMP DP  RH WIND       PRES   REMARKS
SUPERIOR ARPT  FAIR      62  52  70 NE5       30.02F
ASHLAND        FAIR      75  58  55 SW9       30.03F
HAYWARD        PTSUNNY   72  56  57 S13       30.05F
SIREN          FAIR      74  57  55 S9        30.03F
CUMBERLAND     CLOUDY    70  55  60 S8        30.05F
RICE LAKE      CLOUDY    73  54  52 S9        30.06F
CHETEK         CLOUDY   N/A N/A N/A SE6       30.05F
LADYSMITH      FAIR      74  56  54 S9        30.08F
EAU CLAIRE     FAIR      75  56  51 S12       30.04F
MENOMONIE      FAIR      75  57  54 S8        30.05S
NEW RICHMOND   FAIR      73  57  57 S12       30.05R
OSCEOLA        PTSUNNY   74  57  56 S10       30.06R
$$

WIZ003>005-009-010-017-018-272200-
NORTH CENTRAL WISCONSIN

CITY           SKY/WX    TMP DP  RH WIND       PRES   REMARKS
MANITOWISH WTR FAIR      74  54  49 SW9       30.07F
ARBOR VITAE    FAIR      76  55  48 S12       30.07F
WOODRUFF       FAIR      76  55  48 S12       30.07F
RHINELANDER    FAIR      73  53  49 SW9G18    30.09F
EAGLE RIVER    FAIR      72  50  44 SW6       30.08F
LAND O LAKES   FAIR      74  50  43 S6        30.09F
PHILLIPS       FAIR      72  54  53 SW8       30.07F
TOMAHAWK       FAIR      73  54  50 SW5       30.08F
MEDFORD        FAIR      72  56  58 S7        30.08F
MERRILL        FAIR      74  56  53 SW7       30.09F
$$

WIZ029-030-035-036-043>047-272200-
CENTRAL WISCONSIN

CITY           SKY/WX    TMP DP  RH WIND       PRES   REMARKS
WAUSAU         FAIR      74  54  49 SW7       30.07F
MOSINEE        MOSUNNY   73  50  43 S12       30.09F
MARSHFIELD     FAIR      75  54  47 S8        30.07F
STEVENS POINT  FAIR      73  51  46 SW9       30.09F
WAUPACA        FAIR      78  52  40 S8        30.09F
WAUTOMA        FAIR      77  53  43 VRB3      30.09F
WISC RAPIDS    FAIR      76  53  44 SW8       30.09F
CAMP DOUGLAS   PTSUNNY   75  59  57 S8        30.07F
$$

WIZ011>013-019>022-031-037>040-048>050-272200-
NORTHEAST WISCONSIN

CITY           SKY/WX    TMP DP  RH WIND       PRES   REMARKS
ANTIGO         FAIR      73  53  49 S8        30.10F
SHAWANO        FAIR      76  55  47 S6        30.09F
OCONTO         FAIR      71  60  67 S5        30.09F
STURGEON BAY   FAIR      68  57  68 SE8       30.13F
GREEN BAY      FAIR      74  58  57 S9        30.09F
MANITOWOC      FAIR      67  55  65 MISG      30.12F
APPLETON       MOSUNNY   73  50  43 S8        30.09F
CLINTONVILLE   FAIR      73  52  46 SW7       30.08F
OSHKOSH        FAIR      73  56  54 S9        30.09F
$$

WIZ032>034-041-042-053>061-272200-
SOUTHWEST WISCONSIN

CITY           SKY/WX    TMP DP  RH WIND       PRES   REMARKS
LA CROSSE      FAIR      77  57  50 S13       30.05F
SPARTA         FAIR      76  53  45 S7        30.07F
VIROQUA        FAIR      73  58  59 S6        30.09S
BOSCOBEL       FAIR      78  58  49 VRB6      30.08F
PRAIRIE DU CHI FAIR      76  55  46 S7        30.07S
PLATTEVILLE    FAIR      74  61  64 S10       30.10F
$$

WIZ056-057-062-063-064-067-068-272200-
SOUTH CENTRAL WISCONSIN

CITY           SKY/WX    TMP DP  RH WIND       PRES   REMARKS
REEDSBURG      FAIR      74  57  55 S8        30.08F
BARABOO/DELLS  FAIR      76  52  44 S8        30.09F
LONE ROCK      FAIR      75  57  53 S13       30.09F
MINERAL POINT  FAIR      73  57  56 S8        30.11F
MADISON        PTSUNNY   74  55  51 S6        30.10F
MIDDLETON      FAIR      77  55  46 SW9       30.10F
WATERTOWN      FAIR      74  56  52 SW9       30.11F
MONROE         FAIR      72  55  56 S7        30.12F
JANESVILLE     MOSUNNY   75  54  46 SW6       30.12F
$$

WIZ051-052-058>065-066-070>072-272200-
SOUTHEAST WISCONSIN

CITY           SKY/WX    TMP DP  RH WIND       PRES   REMARKS
MILWAUKEE      FAIR      71  54  54 SE16      30.13F
WAUKESHA       PTSUNNY   72  54  53 S9        30.13F
MILWAUKEE/TIMM PTSUNNY   73  50  43 SW5       30.12F
RACINE         FAIR      70  51  51 S14       30.16F
BURLINGTON     FAIR      72  53  51 SW5       30.13F
KENOSHA        FAIR      73  54  51 SE10      30.14F
FOND DU LAC    FAIR      74  55  51 SW9       30.11F
SHEBOYGAN      FAIR      71  58  63 S10       30.12F
WEST BEND      FAIR      72  52  49 SW6       30.11F
JUNEAU         FAIR      71  55  55 S9        30.12F
$$

LSZ147-162-272200-
LAKE SUPERIOR

STATION/POSITION TIME  TEMP    WIND        PRES    WAVE
                       AIR SEA DIR/SP/G            HT/PER
                 (UTC) (F)     (DEG/KT/KT) (MB)    (FT/S)
W MID LAKE BUOY  2050   58 58   60/  4/  4 1017.5F   0
DEVILS ISLAND    2100   58      60/  7/  9 1017.2F
PORT WING        2000   59      20/ 12/ 13 1016.9F
SAXON HARBOR     2000   66        CALM     1017.3F
$$

LMZ867-665-643>646-272200-
LAKE MICHIGAN

STATION/POSITION TIME  TEMP    WIND        PRES    WAVE
                       AIR SEA DIR/SP/G            HT/PER
                 (UTC) (F)     (DEG/KT/KT) (MB)    (FT/S)
CHAMBERS ISLAND  2000   67     150/  5/  8 1019.3
S GREEN BAY BUOY 2100   65     130/  2/  2 1020.5F
N MID LAKE BUOY  2050   60 65  200/ 10/ 12 1019.5F   1
NORTHPORT PIER   2000   61     140/ 11/ 14 1019.6F
SISTER BAY       2019   73        CALM       N/A
ALGOMA LAKESHORE 2014          210/  4/  5   N/A
KEWAUNEE LAKESHO 2000          180/  9/ 11   N/A
SHEBOYGAN LAKESH 2100   61     180/ 21/ 22 1020.2F
PORT WASHINGTON  2000   63     190/  6/  9 1021.3F
ATWATER BUOY     2100   55 47  150/ 10/ 12 1021.4F
MILWAUKEE LAKESH 2000   56     140/ 14/ 15   N/A
S MID LAKE BUOY  2050   66 68  200/  6/  8 1021.3F
KENOSHA   LAKESH 2100   60     150/ 13/ 14 1020.3F
$$

TC  - TEMPERATURE IN CELSIUS
VSB - VISIBILITY IN STATUTE MILES
WCI - WIND CHILL INDEX
HX  - HEAT INDEX



USA.gov is the U.S. government's official web portal to all federal, state and local government web resources and services.